• In Hungary
  • List of Countries
  • For 7 days
  • Water Temperature
  • Satellite Maps
  • Weather Map
  • News
  • Weather Widgets
  • user-avatar
    Login

    Hourly Weather Horodysche

    Today, 21 October, Saturday

    Time Temperature Precipitation Wind Pressure Humidity
    00:00 +5°C° 0 mm 2 mps 754 mmHg 70%
    01:00 +5°C° 0 mm 2 mps 754 mmHg 71%
    02:00 +4°C° 0 mm 2 mps 753 mmHg 72%
    03:00 +4°C° 0 mm 2 mps 753 mmHg 73%
    04:00 +4°C° 0 mm 2 mps 753 mmHg 74%
    05:00 +3°C° 0 mm 2 mps 753 mmHg 75%
    06:00 +4°C° 0 mm 2 mps 753 mmHg 73%
    07:00 +4°C° 0 mm 2 mps 753 mmHg 71%
    08:00 +5°C° 0 mm 2 mps 753 mmHg 66%
    09:00 +6°C° 0 mm 2 mps 753 mmHg 61%
    10:00 +7°C° 0 mm 2 mps 753 mmHg 56%
    11:00 +9°C° 0 mm 2 mps 752 mmHg 51%
    12:00 +9°C° 0 mm 2 mps 752 mmHg 49%
    13:00 +9°C° 0 mm 2 mps 752 mmHg 47%
    14:00 +11°C° 0 mm 1 mps 751 mmHg 45%
    15:00 +9°C° 0 mm 2 mps 751 mmHg 49%
    16:00 +8°C° 0 mm 2 mps 751 mmHg 52%
    17:00 +7°C° 0 mm 2 mps 750 mmHg 56%
    18:00 +7°C° 0.1 mm 3 mps 750 mmHg 58%
    19:00 +7°C° 0.1 mm 3 mps 750 mmHg 60%
    20:00 +6°C° 0.1 mm 4 mps 750 mmHg 62%
    21:00 +5°C° 0.3 mm 4 mps 749 mmHg 64%
    22:00 +5°C° 0.3 mm 4 mps 749 mmHg 67%
    23:00 +5°C° 0.3 mm 4 mps 749 mmHg 70%

    Tomorrow, 22 October, Sunday

    Time Temperature Precipitation Wind Pressure Humidity
    00:00 +4°C° 1.1 mm 4 mps 749 mmHg 73%
    01:00 +4°C° 1.1 mm 4 mps 749 mmHg 76%
    02:00 +4°C° 1.1 mm 4 mps 749 mmHg 79%
    03:00 +3°C° 0.4 mm 4 mps 749 mmHg 80%
    04:00 +3°C° 0.4 mm 4 mps 749 mmHg 82%
    05:00 +3°C° 0.4 mm 4 mps 748 mmHg 83%
    06:00 +2°C° 0 mm 5 mps 749 mmHg 81%
    07:00 +2°C° 0 mm 5 mps 749 mmHg 79%
    08:00 +2°C° 0 mm 5 mps 750 mmHg 78%
    09:00 +3°C° 0 mm 5 mps 750 mmHg 72%
    10:00 +3°C° 0 mm 5 mps 750 mmHg 66%
    11:00 +5°C° 0 mm 5 mps 750 mmHg 61%
    12:00 +5°C° 0 mm 5 mps 751 mmHg 59%
    13:00 +5°C° 0 mm 5 mps 751 mmHg 57%
    14:00 +6°C° 0 mm 5 mps 751 mmHg 55%
    15:00 +5°C° 0 mm 4 mps 751 mmHg 59%
    16:00 +4°C° 0 mm 3 mps 751 mmHg 63%
    17:00 +2°C° 0 mm 3 mps 752 mmHg 67%
    18:00 +3°C° 0 mm 2 mps 752 mmHg 68%
    19:00 +2°C° 0 mm 2 mps 752 mmHg 69%
    20:00 +2°C° 0 mm 2 mps 753 mmHg 71%
    21:00 +1°C° 0 mm 2 mps 753 mmHg 71%
    22:00 +2°C° 0 mm 1 mps 753 mmHg 71%
    23:00 +2°C° 0 mm 1 mps 753 mmHg 71%

    Day after tomorrow, 23 October, Monday

    Time Temperature Precipitation Wind Pressure Humidity
    00:00 +1°C° 0 mm 1 mps 753 mmHg 71%
    01:00 0°C° 0 mm 0 mps 754 mmHg 72%
    02:00 0°C° 0 mm 0 mps 754 mmHg 72%
    03:00 0°C° 0 mm 0 mps 754 mmHg 72%
    04:00 0°C° 0 mm 0 mps 754 mmHg 72%
    05:00 0°C° 0 mm 0 mps 754 mmHg 72%
    06:00 0°C° 0 mm 0 mps 754 mmHg 69%
    07:00 +1°C° 0 mm 0 mps 754 mmHg 66%
    08:00 +1°C° 0 mm 0 mps 754 mmHg 63%
    09:00 +4°C° 0 mm 1 mps 754 mmHg 58%
    10:00 +5°C° 0 mm 1 mps 754 mmHg 53%
    11:00 +6°C° 0 mm 1 mps 754 mmHg 47%
    12:00 +6°C° 0 mm 1 mps 754 mmHg 46%
    13:00 +7°C° 0 mm 1 mps 754 mmHg 44%
    14:00 +7°C° 0 mm 1 mps 754 mmHg 42%
    15:00 +6°C° 0 mm 1 mps 754 mmHg 46%
    16:00 +4°C° 0 mm 2 mps 754 mmHg 49%
    17:00 +3°C° 0 mm 2 mps 754 mmHg 53%
    18:00 +3°C° 0 mm 2 mps 754 mmHg 55%
    19:00 +2°C° 0 mm 2 mps 755 mmHg 57%
    20:00 +2°C° 0 mm 2 mps 755 mmHg 59%
    21:00 +2°C° 0 mm 2 mps 755 mmHg 60%
    22:00 +1°C° 0 mm 2 mps 755 mmHg 61%
    23:00 +1°C° 0 mm 2 mps 756 mmHg 62%

    24 October, Tuesday

    Time Temperature Precipitation Wind Pressure Humidity
    00:00 0°C° 0 mm 3 mps 756 mmHg 63%
    01:00 0°C° 0 mm 3 mps 756 mmHg 64%
    02:00 0°C° 0 mm 3 mps 756 mmHg 65%
    03:00 0°C° 0 mm 3 mps 756 mmHg 65%
    04:00 0°C° 0 mm 3 mps 757 mmHg 66%
    05:00 -1°C° 0 mm 3 mps 757 mmHg 67%
    06:00 -1°C° 0 mm 4 mps 757 mmHg 65%
    07:00 -1°C° 0 mm 4 mps 758 mmHg 64%
    08:00 0°C° 0 mm 4 mps 758 mmHg 62%
    09:00 +1°C° 0 mm 5 mps 758 mmHg 59%
    10:00 +2°C° 0 mm 5 mps 758 mmHg 55%
    11:00 +3°C° 0 mm 5 mps 759 mmHg 52%
    12:00 +3°C° 0 mm 5 mps 759 mmHg 51%
    13:00 +3°C° 0 mm 5 mps 759 mmHg 51%
    14:00 +3°C° 0 mm 5 mps 759 mmHg 50%
    15:00 +3°C° 0 mm 5 mps 759 mmHg 53%
    16:00 +3°C° 0 mm 4 mps 759 mmHg 56%
    17:00 +1°C° 0 mm 4 mps 760 mmHg 58%
    18:00 +1°C° 0 mm 4 mps 760 mmHg 59%
    19:00 +1°C° 0 mm 4 mps 760 mmHg 60%
    20:00 0°C° 0 mm 4 mps 761 mmHg 61%
    21:00 0°C° 0 mm 4 mps 761 mmHg 61%
    22:00 0°C° 0 mm 4 mps 761 mmHg 62%
    23:00 0°C° 0 mm 4 mps 761 mmHg 62%

    25 October, Wednesday

    Time Temperature Precipitation Wind Pressure Humidity
    00:00 0°C° 0 mm 4 mps 761 mmHg 62%
    01:00 -1°C° 0 mm 4 mps 761 mmHg 63%
    02:00 -1°C° 0 mm 4 mps 761 mmHg 63%
    03:00 -1°C° 0 mm 4 mps 762 mmHg 64%
    04:00 -1°C° 0 mm 4 mps 762 mmHg 64%
    05:00 -1°C° 0 mm 4 mps 762 mmHg 65%
    06:00 -1°C° 0 mm 5 mps 762 mmHg 64%
    07:00 -1°C° 0 mm 5 mps 762 mmHg 63%
    08:00 -1°C° 0 mm 5 mps 762 mmHg 62%
    09:00 0°C° 0 mm 5 mps 762 mmHg 59%
    10:00 +1°C° 0 mm 5 mps 762 mmHg 55%
    11:00 +1°C° 0 mm 5 mps 762 mmHg 52%
    12:00 +2°C° 0 mm 5 mps 762 mmHg 51%
    13:00 +2°C° 0 mm 5 mps 762 mmHg 50%
    14:00 +2°C° 0 mm 5 mps 762 mmHg 49%
    15:00 +1°C° 0 mm 5 mps 762 mmHg 51%
    16:00 +1°C° 0 mm 5 mps 761 mmHg 53%
    17:00 0°C° 0 mm 4 mps 761 mmHg 55%
    18:00 0°C° 0 mm 4 mps 762 mmHg 56%
    19:00 -1°C° 0 mm 5 mps 762 mmHg 57%
    20:00 -1°C° 0 mm 5 mps 762 mmHg 58%
    21:00 -1°C° 0 mm 5 mps 762 mmHg 59%
    22:00 -1°C° 0 mm 5 mps 762 mmHg 60%
    23:00 -2°C° 0 mm 5 mps 762 mmHg 60%

    26 October, Thursday

    Time Temperature Precipitation Wind Pressure Humidity
    00:00 -2°C° 0 mm 5 mps 761 mmHg 62%
    01:00 -2°C° 0 mm 5 mps 761 mmHg 64%
    02:00 -3°C° 0 mm 4 mps 761 mmHg 65%
    03:00 -3°C° 0 mm 4 mps 761 mmHg 67%
    04:00 -3°C° 0 mm 4 mps 760 mmHg 68%
    05:00 -3°C° 0 mm 4 mps 760 mmHg 69%
    06:00 -4°C° 0 mm 5 mps 760 mmHg 68%
    07:00 -4°C° 0 mm 5 mps 760 mmHg 66%
    08:00 -2°C° 0 mm 5 mps 760 mmHg 64%
    09:00 -1°C° 0 mm 5 mps 760 mmHg 59%
    10:00 0°C° 0 mm 5 mps 760 mmHg 54%
    11:00 +2°C° 0 mm 5 mps 759 mmHg 49%
    12:00 +3°C° 0 mm 4 mps 759 mmHg 48%
    13:00 +3°C° 0 mm 4 mps 758 mmHg 48%
    14:00 +4°C° 0 mm 4 mps 758 mmHg 47%
    15:00 +3°C° 0 mm 3 mps 758 mmHg 51%
    16:00 +2°C° 0 mm 3 mps 758 mmHg 56%
    17:00 +1°C° 0 mm 2 mps 757 mmHg 61%
    18:00 +1°C° 0 mm 2 mps 757 mmHg 63%
    19:00 -1°C° 0 mm 2 mps 757 mmHg 65%
    20:00 +1°C° 0 mm 1 mps 757 mmHg 68%
    21:00 +1°C° 0 mm 1 mps 757 mmHg 69%
    22:00 0°C° 0 mm 1 mps 756 mmHg 70%
    23:00 -1°C° 0 mm 0 mps 756 mmHg 72%
    Show more